Location: Austin
(30.3000°N, 97.7500°W)
Time: 04:22:03
(UTC-06:00)

USA 59 Rocket - Pass Details

Date: 05 February 2026
Orbit: 369 x 1672 km, 63.3° (Epoch: 14 February)

Event Time Altitude Azimuth Distance (km) Brightness Sun altitude
Rises 04:56:37 0° 172° (S) 3,337 3.9 -31.1°
Reaches altitude 10° 05:00:26 10° 149° (SSE) 2,115 3.1 -30.2°
Maximum altitude 05:02:51 14° 118° (ESE) 1,694 3.0 -29.7°
Drops below altitude 10° 05:04:57 10° 86° (E) 1,796 3.4 -29.3°
Sets 05:07:43 0° 58° (ENE) 2,506 4.0 -28.7°
